FDX486 KMEM-KLAX

Flight info

Callsign FDX486
Flight time 3h 50m
Altitude 38000
Route DUCKZ5 HELAR KLUBB TCC/N0478F400 DRK GABBL HLYWD1
Aircraft B77L/H-SDE1E2E3FGHIJ2J3J4J5M1RWXY/LB1D1

Departure

Time 2026-05-04 16:01
Airport Memphis International Airport (KMEM)

Arrival

Time 2026-05-04 19:51
Airport Los Angeles International Airport (KLAX)
Time Latitude Longitude Altitude Speed Heading
2026-05-04 15:39 35.06103 -89.96171 311 ft 0 kts
2026-05-04 15:50 35.06101 -89.96171 311 ft 1 kts
2026-05-04 15:50 35.06084 -89.96171 312 ft 3 kts 353°
2026-05-04 15:51 35.06064 -89.96166 315 ft 3 kts 335°
2026-05-04 15:51 35.06048 -89.96154 314 ft 3 kts 309°
2026-05-04 15:51 35.06040 -89.96137 314 ft 3 kts 275°
2026-05-04 15:51 35.06040 -89.96133 314 ft 3 kts 272°
2026-05-04 15:54 35.06041 -89.96176 315 ft 15 kts 272°
2026-05-04 15:54 35.06045 -89.96320 313 ft 18 kts 271°
2026-05-04 15:54 35.06038 -89.96458 314 ft 15 kts 244°
2026-05-04 15:55 35.05961 -89.96540 315 ft 14 kts 215°
2026-05-04 15:55 35.05921 -89.96650 313 ft 16 kts 268°
2026-05-04 15:55 35.05924 -89.96801 313 ft 21 kts 272°
2026-05-04 15:55 35.05928 -89.96975 312 ft 21 kts 272°
2026-05-04 15:56 35.05933 -89.97150 308 ft 21 kts 272°
2026-05-04 15:56 35.05938 -89.97322 310 ft 20 kts 272°
2026-05-04 15:56 35.05933 -89.97460 313 ft 13 kts 243°
2026-05-04 15:56 35.05848 -89.97486 313 ft 17 kts 173°
2026-05-04 15:57 35.05687 -89.97487 315 ft 25 kts 180°
2026-05-04 15:57 35.05536 -89.97486 327 ft 15 kts 184°
2026-05-04 15:57 35.05503 -89.97501 327 ft 0 kts 211°
2026-05-04 16:00 35.05498 -89.97505 327 ft 6 kts 215°
2026-05-04 16:00 35.05448 -89.97576 327 ft 11 kts 239°
2026-05-04 16:00 35.05403 -89.97612 327 ft 1 kts 186°
2026-05-04 16:00 35.05341 -89.97614 327 ft 37 kts 180°
2026-05-04 16:01 35.04778 -89.97605 318 ft 121 kts 179°
2026-05-04 16:01 35.03729 -89.97574 410 ft 169 kts 181°
2026-05-04 16:01 35.02543 -89.97523 1071 ft 177 kts 181°
2026-05-04 16:01 35.01339 -89.97738 1787 ft 175 kts 206°
2026-05-04 16:02 35.00239 -89.98327 2565 ft 182 kts 208°
2026-05-04 16:02 34.98973 -89.98958 2896 ft 217 kts 206°
2026-05-04 16:02 34.96441 -90.00171 4048 ft 241 kts 206°
2026-05-04 16:03 34.95056 -90.01307 4729 ft 244 kts 230°
2026-05-04 16:03 34.94291 -90.03154 5164 ft 247 kts 255°
2026-05-04 16:03 34.94101 -90.05259 6088 ft 255 kts 265°
2026-05-04 16:03 34.94101 -90.08192 7211 ft 266 kts 267°
2026-05-04 16:04 34.94125 -90.10455 8194 ft 267 kts 270°
2026-05-04 16:04 34.94645 -90.14228 9854 ft 273 kts 279°
2026-05-04 16:04 34.95045 -90.16520 10602 ft 284 kts 279°
2026-05-04 16:05 34.95456 -90.19005 10867 ft 315 kts 278°
2026-05-04 16:05 34.95895 -90.21751 11108 ft 345 kts 278°
2026-05-04 16:05 34.96661 -90.27757 12605 ft 371 kts 276°
2026-05-04 16:06 34.97041 -90.30938 13671 ft 377 kts 276°
2026-05-04 16:06 34.98205 -90.40539 16753 ft 388 kts 277°
2026-05-04 16:07 34.98606 -90.43810 17763 ft 392 kts 277°
2026-05-04 16:07 34.99829 -90.53803 20417 ft 402 kts 277°
2026-05-04 16:08 35.00242 -90.57181 21297 ft 404 kts 277°
2026-05-04 16:08 35.01491 -90.67477 23763 ft 415 kts 277°
2026-05-04 16:09 35.02305 -90.74493 25112 ft 420 kts 275°
2026-05-04 16:09 35.02437 -90.81677 26361 ft 428 kts 270°
2026-05-04 16:10 35.02566 -90.88997 27597 ft 435 kts 272°
2026-05-04 16:11 35.03037 -91.00171 29359 ft 445 kts 274°
2026-05-04 16:11 35.03196 -91.03957 29866 ft 448 kts 274°
2026-05-04 16:12 35.03641 -91.15349 31637 ft 443 kts 274°
2026-05-04 16:12 35.04049 -91.26506 33525 ft 436 kts 274°
2026-05-04 16:13 35.04312 -91.33860 34561 ft 432 kts 275°
2026-05-04 16:13 35.04568 -91.41141 35522 ft 427 kts 275°
2026-05-04 16:14 35.04818 -91.48349 36420 ft 423 kts 275°
2026-05-04 16:14 35.05059 -91.55437 37419 ft 415 kts 276°
2026-05-04 16:15 35.05412 -91.65971 38014 ft 416 kts 276°
2026-05-04 16:16 35.05642 -91.73005 38002 ft 412 kts 276°
2026-05-04 16:17 35.06192 -91.90361 37999 ft 408 kts 276°
2026-05-04 16:18 35.06611 -92.04173 38004 ft 406 kts 277°
2026-05-04 16:19 35.07112 -92.21358 37994 ft 405 kts 276°
2026-05-04 16:20 35.07584 -92.38447 37984 ft 402 kts 277°
2026-05-04 16:22 35.08032 -92.55444 37982 ft 400 kts 277°
2026-05-04 16:23 35.08534 -92.75743 37972 ft 397 kts 277°
2026-05-04 16:25 35.08999 -92.95882 37958 ft 395 kts 277°
2026-05-04 16:26 35.09498 -93.19296 37949 ft 393 kts 277°
2026-05-04 16:28 35.09825 -93.35933 37933 ft 393 kts 277°
2026-05-04 16:29 35.10246 -93.59303 37946 ft 394 kts 277°
2026-05-04 16:31 35.10520 -93.76020 37941 ft 394 kts 277°
2026-05-04 16:32 35.10815 -93.96019 37930 ft 391 kts 277°
2026-05-04 16:33 35.10995 -94.09262 37931 ft 389 kts 277°
2026-05-04 16:34 35.11119 -94.19178 37931 ft 389 kts 277°
2026-05-04 16:35 35.11342 -94.38888 37936 ft 385 kts 277°
2026-05-04 16:36 35.11441 -94.48686 37950 ft 384 kts 277°
2026-05-04 16:37 35.11533 -94.58476 37925 ft 384 kts 277°
2026-05-04 16:38 35.11641 -94.71435 37924 ft 382 kts 277°
2026-05-04 16:39 35.11758 -94.87635 37918 ft 381 kts 277°
2026-05-04 16:40 35.11836 -95.00575 37899 ft 380 kts 277°
2026-05-04 16:41 35.11911 -95.16667 37909 ft 378 kts 277°
2026-05-04 16:43 35.11968 -95.32713 37905 ft 378 kts 277°
2026-05-04 16:43 35.11992 -95.42309 37895 ft 375 kts 277°
2026-05-04 16:45 35.12559 -95.61311 37901 ft 375 kts 279°
2026-05-04 16:46 35.13215 -95.77231 37887 ft 375 kts 279°
2026-05-04 16:47 35.13699 -95.89941 37894 ft 374 kts 279°
2026-05-04 16:48 35.14170 -96.02643 37887 ft 374 kts 279°
2026-05-04 16:49 35.14627 -96.15343 37867 ft 374 kts 278°
2026-05-04 16:50 35.15070 -96.28043 37865 ft 374 kts 278°
2026-05-04 16:51 35.15394 -96.37576 37866 ft 375 kts 278°
2026-05-04 16:52 35.15815 -96.50298 37866 ft 374 kts 278°
2026-05-04 16:53 35.16122 -96.59846 37872 ft 375 kts 278°
2026-05-04 16:54 35.16520 -96.72566 37871 ft 376 kts 278°
2026-05-04 16:55 35.17062 -96.90667 37847 ft 375 kts 278°
2026-05-04 16:56 35.17516 -97.06542 37852 ft 375 kts 278°
2026-05-04 16:57 35.17779 -97.16102 37841 ft 375 kts 278°
2026-05-04 16:58 35.18119 -97.28853 37841 ft 375 kts 278°
2026-05-04 17:00 35.18603 -97.47985 37837 ft 375 kts 278°
2026-05-04 17:01 35.18982 -97.63912 37827 ft 375 kts 277°
2026-05-04 17:02 35.19271 -97.76634 37821 ft 374 kts 277°
2026-05-04 17:03 35.19477 -97.86127 37810 ft 374 kts 277°
2026-05-04 17:03 35.19677 -97.95662 37794 ft 374 kts 277°
2026-05-04 17:04 35.19932 -98.08357 37786 ft 373 kts 277°
2026-05-04 17:05 35.20174 -98.21054 37780 ft 374 kts 277°
2026-05-04 17:06 35.20346 -98.30583 37771 ft 374 kts 277°
2026-05-04 17:07 35.20493 -98.39041 37772 ft 373 kts 277°
2026-05-04 17:07 35.20617 -98.46464 37823 ft 374 kts 277°
2026-05-04 17:08 35.20770 -98.56008 37771 ft 374 kts 277°
2026-05-04 17:09 35.20867 -98.62364 37773 ft 374 kts 277°
2026-05-04 17:09 35.20962 -98.68717 37772 ft 373 kts 277°
2026-05-04 17:10 35.21182 -98.84557 37768 ft 372 kts 276°
2026-05-04 17:11 35.21264 -98.90842 37782 ft 372 kts 276°
2026-05-04 17:12 35.21381 -99.00333 37783 ft 372 kts 276°
2026-05-04 17:13 35.21561 -99.16152 37786 ft 372 kts 276°
2026-05-04 17:14 35.21689 -99.28820 37796 ft 373 kts 276°
2026-05-04 17:15 35.21777 -99.38335 37772 ft 373 kts 276°
2026-05-04 17:16 35.21883 -99.51029 37762 ft 373 kts 275°
2026-05-04 17:17 35.21975 -99.63726 37754 ft 373 kts 275°
2026-05-04 17:18 35.22054 -99.76430 37738 ft 374 kts 275°
2026-05-04 17:19 35.22120 -99.89133 37721 ft 373 kts 275°
2026-05-04 17:20 35.22173 -100.01810 37727 ft 375 kts 274°
2026-05-04 17:20 35.22204 -100.11375 37724 ft 375 kts 274°
2026-05-04 17:21 35.22233 -100.24147 37714 ft 376 kts 274°
2026-05-04 17:22 35.22243 -100.30542 37720 ft 376 kts 274°
2026-05-04 17:23 35.22252 -100.43352 37722 ft 377 kts 274°
2026-05-04 17:24 35.22250 -100.52953 37719 ft 376 kts 274°
2026-05-04 17:25 35.22236 -100.65753 37722 ft 377 kts 274°
2026-05-04 17:26 35.22209 -100.78583 37729 ft 378 kts 274°
2026-05-04 17:27 35.22155 -100.94654 37733 ft 378 kts 273°
2026-05-04 17:28 35.22096 -101.07518 37736 ft 378 kts 273°
2026-05-04 17:29 35.21984 -101.26757 37735 ft 378 kts 273°
2026-05-04 17:31 35.21866 -101.42824 37829 ft 378 kts 273°
2026-05-04 17:32 35.21728 -101.58900 37904 ft 378 kts 273°
2026-05-04 17:33 35.21601 -101.71746 37900 ft 377 kts 272°
2026-05-04 17:34 35.21462 -101.84585 37895 ft 378 kts 272°
2026-05-04 17:35 35.21268 -102.00654 37819 ft 378 kts 272°
2026-05-04 17:36 35.21185 -102.07079 37784 ft 378 kts 272°
2026-05-04 17:36 35.21098 -102.13506 37766 ft 378 kts 272°
2026-05-04 17:37 35.21007 -102.19928 37769 ft 378 kts 272°
2026-05-04 17:37 35.20914 -102.26356 37771 ft 378 kts 272°
2026-05-04 17:38 35.20817 -102.32784 37773 ft 378 kts 272°
2026-05-04 17:38 35.20716 -102.39209 37787 ft 378 kts 272°
2026-05-04 17:39 35.20560 -102.48806 37793 ft 378 kts 271°
2026-05-04 17:39 35.20451 -102.55217 37788 ft 377 kts 271°
2026-05-04 17:40 35.20339 -102.61622 37784 ft 377 kts 271°
2026-05-04 17:40 35.20224 -102.68018 37794 ft 376 kts 271°
2026-05-04 17:41 35.20106 -102.74413 37794 ft 376 kts 271°
2026-05-04 17:41 35.19984 -102.80801 37793 ft 376 kts 271°
2026-05-04 17:42 35.19859 -102.87188 37802 ft 376 kts 271°
2026-05-04 17:42 35.19731 -102.93582 37806 ft 377 kts 271°
2026-05-04 17:43 35.19665 -102.96793 38032 ft 378 kts 271°
2026-05-04 17:43 35.19598 -102.99994 38428 ft 375 kts 271°
2026-05-04 17:43 35.19531 -103.03169 38776 ft 373 kts 271°
2026-05-04 17:43 35.19463 -103.06335 39037 ft 372 kts 271°
2026-05-04 17:44 35.19395 -103.09500 39253 ft 373 kts 271°
2026-05-04 17:44 35.19326 -103.12665 39485 ft 372 kts 270°
2026-05-04 17:44 35.19256 -103.15824 39672 ft 372 kts 270°
2026-05-04 17:44 35.19186 -103.18994 39730 ft 373 kts 270°
2026-05-04 17:45 35.19043 -103.25265 39811 ft 370 kts 270°
2026-05-04 17:45 35.18897 -103.31525 39840 ft 367 kts 270°
2026-05-04 17:46 35.18774 -103.36737 39861 ft 366 kts 270°
2026-05-04 17:46 35.18625 -103.42943 39887 ft 365 kts 270°
2026-05-04 17:47 35.18472 -103.49142 39911 ft 365 kts 270°
2026-05-04 17:47 35.18317 -103.55347 39909 ft 366 kts 270°
2026-05-04 17:48 35.18162 -103.61547 39920 ft 369 kts 270°
2026-05-04 17:48 35.18047 -103.67843 39922 ft 372 kts 271°
2026-05-04 17:49 35.17938 -103.74181 39905 ft 374 kts 271°
2026-05-04 17:49 35.17823 -103.80557 39874 ft 376 kts 271°
2026-05-04 17:50 35.17701 -103.86948 39822 ft 376 kts 270°
2026-05-04 17:50 35.17575 -103.93341 39806 ft 376 kts 270°
2026-05-04 17:51 35.17445 -103.99740 39774 ft 376 kts 270°
2026-05-04 17:51 35.17311 -104.06129 39760 ft 376 kts 270°
2026-05-04 17:52 35.17175 -104.12518 39748 ft 376 kts 270°
2026-05-04 17:52 35.17035 -104.18902 39747 ft 376 kts 270°
2026-05-04 17:53 35.16893 -104.25280 39748 ft 375 kts 270°
2026-05-04 17:53 35.16747 -104.31657 39751 ft 376 kts 270°
2026-05-04 17:54 35.16597 -104.38039 39743 ft 376 kts 270°
2026-05-04 17:54 35.16444 -104.44435 39736 ft 377 kts 270°
2026-05-04 17:55 35.16288 -104.50833 39744 ft 377 kts 270°
2026-05-04 17:55 35.16127 -104.57228 39747 ft 377 kts 270°
2026-05-04 17:56 35.15964 -104.63627 39744 ft 377 kts 270°
2026-05-04 17:56 35.15797 -104.70030 39742 ft 377 kts 270°
2026-05-04 17:57 35.15627 -104.76424 39847 ft 377 kts 270°
2026-05-04 17:57 35.15455 -104.82775 39826 ft 377 kts 270°
2026-05-04 17:58 35.15278 -104.89177 39792 ft 377 kts 270°
2026-05-04 17:58 35.15098 -104.95580 39770 ft 377 kts 270°
2026-05-04 17:59 35.14913 -105.01982 39770 ft 377 kts 270°
2026-05-04 18:00 35.14631 -105.11613 39783 ft 379 kts 269°
2026-05-04 18:00 35.14438 -105.18046 39788 ft 379 kts 269°
2026-05-04 18:01 35.14241 -105.24493 39804 ft 380 kts 269°
2026-05-04 18:01 35.14041 -105.30944 39780 ft 380 kts 269°
2026-05-04 18:02 35.13733 -105.40633 39826 ft 381 kts 269°
2026-05-04 18:02 35.13523 -105.47106 39819 ft 382 kts 269°
2026-05-04 18:03 35.13309 -105.53587 39848 ft 382 kts 269°
2026-05-04 18:03 35.13092 -105.60083 39848 ft 383 kts 269°
2026-05-04 18:04 35.12871 -105.66587 39867 ft 384 kts 269°
2026-05-04 18:05 35.12532 -105.76355 39856 ft 384 kts 269°
2026-05-04 18:05 35.12302 -105.82863 39872 ft 383 kts 268°
2026-05-04 18:06 35.11952 -105.92561 39870 ft 383 kts 268°
2026-05-04 18:06 35.11714 -105.99046 39874 ft 382 kts 268°
2026-05-04 18:07 35.11472 -106.05567 39877 ft 381 kts 268°
2026-05-04 18:07 35.11229 -106.11988 39878 ft 381 kts 268°
2026-05-04 18:08 35.10982 -106.18446 39883 ft 380 kts 268°
2026-05-04 18:08 35.10731 -106.24893 39915 ft 380 kts 268°
2026-05-04 18:09 35.10222 -106.37759 40005 ft 380 kts 268°
2026-05-04 18:10 35.09960 -106.44211 40031 ft 382 kts 268°
2026-05-04 18:10 35.09696 -106.50683 40048 ft 381 kts 268°
2026-05-04 18:11 35.09429 -106.57132 40065 ft 379 kts 267°
2026-05-04 18:11 35.09159 -106.63554 40069 ft 378 kts 267°
2026-05-04 18:12 35.08886 -106.69954 40067 ft 377 kts 268°
2026-05-04 18:12 35.08611 -106.76335 40095 ft 376 kts 267°
2026-05-04 18:13 35.08334 -106.82698 40085 ft 375 kts 267°
2026-05-04 18:13 35.08054 -106.89050 39867 ft 374 kts 267°
2026-05-04 18:14 35.07912 -106.92225 39856 ft 375 kts 267°
2026-05-04 18:14 35.07627 -106.98578 39838 ft 375 kts 267°
2026-05-04 18:15 35.07046 -107.11293 39843 ft 376 kts 266°
2026-05-04 18:16 35.06750 -107.17666 39844 ft 376 kts 266°
2026-05-04 18:16 35.06450 -107.24056 39844 ft 378 kts 266°
2026-05-04 18:17 35.05990 -107.33691 39831 ft 380 kts 266°
2026-05-04 18:18 35.05522 -107.43358 39828 ft 381 kts 266°
2026-05-04 18:18 35.05205 -107.49814 39827 ft 381 kts 266°
2026-05-04 18:19 35.04722 -107.59504 39829 ft 382 kts 266°
2026-05-04 18:19 35.04395 -107.65971 39822 ft 382 kts 266°
2026-05-04 18:20 35.04065 -107.72434 39827 ft 381 kts 266°
2026-05-04 18:20 35.03732 -107.78892 39811 ft 381 kts 266°
2026-05-04 18:21 35.03396 -107.85359 39821 ft 382 kts 266°
2026-05-04 18:21 35.03057 -107.91794 39821 ft 383 kts 266°
2026-05-04 18:22 35.02711 -107.98288 39820 ft 384 kts 266°
2026-05-04 18:22 35.02363 -108.04791 39818 ft 384 kts 266°
2026-05-04 18:23 35.02010 -108.11297 39818 ft 385 kts 266°
2026-05-04 18:23 35.01653 -108.17814 39814 ft 385 kts 266°
2026-05-04 18:24 35.01293 -108.24335 39814 ft 385 kts 266°
2026-05-04 18:24 35.00929 -108.30855 39818 ft 385 kts 266°
2026-05-04 18:25 35.00561 -108.37371 39810 ft 385 kts 266°
2026-05-04 18:25 35.00191 -108.43880 39805 ft 384 kts 265°
2026-05-04 18:26 34.99818 -108.50380 39811 ft 384 kts 265°
2026-05-04 18:26 34.99441 -108.56875 39811 ft 384 kts 265°
2026-05-04 18:27 34.99061 -108.63371 39811 ft 384 kts 265°
2026-05-04 18:27 34.98677 -108.69866 39810 ft 384 kts 265°
2026-05-04 18:28 34.98290 -108.76355 39816 ft 384 kts 265°
2026-05-04 18:28 34.97900 -108.82841 39820 ft 384 kts 265°
2026-05-04 18:29 34.97506 -108.89337 39829 ft 384 kts 265°
2026-05-04 18:29 34.97108 -108.95836 39827 ft 384 kts 265°
2026-05-04 18:30 34.96505 -109.05576 39830 ft 384 kts 265°
2026-05-04 18:31 34.96099 -109.12059 39883 ft 384 kts 265°
2026-05-04 18:31 34.95690 -109.18552 39852 ft 384 kts 264°
2026-05-04 18:32 34.95277 -109.25033 39837 ft 384 kts 264°
2026-05-04 18:32 34.94864 -109.31469 39857 ft 383 kts 264°
2026-05-04 18:33 34.94514 -109.36886 39851 ft 382 kts 264°
2026-05-04 18:33 34.94025 -109.44389 39864 ft 382 kts 264°
2026-05-04 18:34 34.93600 -109.50845 39875 ft 382 kts 264°
2026-05-04 18:34 34.93243 -109.56240 39870 ft 381 kts 264°
2026-05-04 18:35 34.92813 -109.62671 39868 ft 380 kts 264°
2026-05-04 18:35 34.92381 -109.69085 39861 ft 379 kts 264°
2026-05-04 18:36 34.91947 -109.75487 39877 ft 379 kts 264°
2026-05-04 18:36 34.91510 -109.81892 39883 ft 379 kts 263°
2026-05-04 18:37 34.91071 -109.88257 39875 ft 379 kts 263°
2026-05-04 18:37 34.90623 -109.94699 39889 ft 379 kts 263°
2026-05-04 18:38 34.90178 -110.01065 39879 ft 380 kts 263°
2026-05-04 18:38 34.89725 -110.07482 39893 ft 381 kts 263°
2026-05-04 18:39 34.89269 -110.13912 39879 ft 381 kts 263°
2026-05-04 18:39 34.88809 -110.20346 39885 ft 382 kts 263°
2026-05-04 18:40 34.88343 -110.26795 39899 ft 383 kts 263°
2026-05-04 18:40 34.87874 -110.33256 39890 ft 383 kts 263°
2026-05-04 18:41 34.87401 -110.39724 39888 ft 384 kts 263°
2026-05-04 18:41 34.86924 -110.46193 39892 ft 384 kts 263°
2026-05-04 18:42 34.86443 -110.52670 39908 ft 384 kts 262°
2026-05-04 18:42 34.85959 -110.59147 39894 ft 384 kts 262°
2026-05-04 18:43 34.85471 -110.65630 39999 ft 384 kts 262°
2026-05-04 18:43 34.84979 -110.72110 40000 ft 384 kts 262°
2026-05-04 18:44 34.84483 -110.78592 39999 ft 384 kts 262°
2026-05-04 18:44 34.83985 -110.85069 39976 ft 384 kts 262°
2026-05-04 18:45 34.83483 -110.91551 39983 ft 385 kts 262°
2026-05-04 18:45 34.82976 -110.98048 39953 ft 386 kts 262°
2026-05-04 18:46 34.82465 -111.04555 39947 ft 386 kts 262°
2026-05-04 18:46 34.81950 -111.11063 39935 ft 387 kts 262°
2026-05-04 18:47 34.81435 -111.17535 39959 ft 387 kts 262°
2026-05-04 18:47 34.80910 -111.24100 39941 ft 387 kts 261°
2026-05-04 18:48 34.80388 -111.30569 39946 ft 387 kts 261°
2026-05-04 18:48 34.79858 -111.37075 39947 ft 386 kts 261°
2026-05-04 18:49 34.79325 -111.43575 39940 ft 386 kts 261°
2026-05-04 18:49 34.78790 -111.50077 39943 ft 386 kts 261°
2026-05-04 18:50 34.78251 -111.56582 40017 ft 387 kts 261°
2026-05-04 18:50 34.77707 -111.63095 40030 ft 387 kts 261°
2026-05-04 18:51 34.77161 -111.69603 40046 ft 387 kts 261°
2026-05-04 18:51 34.76610 -111.76108 40059 ft 387 kts 261°
2026-05-04 18:52 34.76058 -111.82610 40060 ft 386 kts 261°
2026-05-04 18:52 34.75502 -111.89100 40053 ft 386 kts 261°
2026-05-04 18:53 34.74943 -111.95586 40006 ft 385 kts 261°
2026-05-04 18:53 34.74383 -112.02054 39974 ft 384 kts 261°
2026-05-04 18:54 34.73820 -112.08506 39934 ft 383 kts 261°
2026-05-04 18:54 34.73256 -112.14935 39957 ft 382 kts 260°
2026-05-04 18:55 34.72690 -112.21347 39984 ft 382 kts 260°
2026-05-04 18:55 34.71830 -112.31003 40036 ft 383 kts 260°
2026-05-04 18:56 34.71256 -112.37410 40044 ft 384 kts 260°
2026-05-04 18:56 34.70671 -112.43904 40046 ft 384 kts 260°
2026-05-04 18:57 34.70070 -112.50314 39838 ft 384 kts 259°
2026-05-04 18:57 34.69341 -112.56791 39847 ft 385 kts 258°
2026-05-04 18:58 34.68599 -112.63193 39846 ft 386 kts 258°
2026-05-04 18:58 34.67857 -112.69651 39847 ft 386 kts 259°
2026-05-04 18:59 34.67116 -112.76114 39854 ft 387 kts 259°
2026-05-04 18:59 34.66373 -112.82588 39857 ft 388 kts 258°
2026-05-04 19:00 34.65625 -112.89076 39850 ft 388 kts 258°
2026-05-04 19:00 34.64875 -112.95571 39850 ft 388 kts 258°
2026-05-04 19:01 34.64122 -113.02050 39860 ft 387 kts 258°
2026-05-04 19:01 34.63365 -113.08522 39861 ft 387 kts 258°
2026-05-04 19:02 34.62608 -113.14994 39862 ft 387 kts 258°
2026-05-04 19:02 34.61846 -113.21452 39866 ft 386 kts 258°
2026-05-04 19:03 34.61077 -113.27904 39849 ft 386 kts 258°
2026-05-04 19:03 34.60311 -113.34360 39854 ft 387 kts 258°
2026-05-04 19:04 34.59539 -113.40824 39860 ft 387 kts 258°
2026-05-04 19:04 34.58767 -113.47250 39843 ft 388 kts 257°
2026-05-04 19:05 34.57986 -113.53725 39853 ft 388 kts 257°
2026-05-04 19:05 34.57199 -113.60202 39836 ft 388 kts 257°
2026-05-04 19:06 34.56413 -113.66671 39857 ft 388 kts 257°
2026-05-04 19:06 34.55622 -113.73145 39853 ft 388 kts 257°
2026-05-04 19:07 34.54825 -113.79627 39862 ft 389 kts 257°
2026-05-04 19:07 34.54024 -113.86116 39859 ft 389 kts 257°
2026-05-04 19:08 34.53220 -113.92610 39864 ft 390 kts 257°
2026-05-04 19:08 34.52412 -113.99108 39879 ft 390 kts 257°
2026-05-04 19:09 34.51593 -114.05607 39891 ft 389 kts 256°
2026-05-04 19:09 34.50380 -114.11965 39908 ft 386 kts 252°
2026-05-04 19:10 34.48982 -114.18249 39919 ft 386 kts 252°
2026-05-04 19:10 34.47603 -114.24540 39932 ft 386 kts 252°
2026-05-04 19:11 34.46248 -114.30844 39937 ft 387 kts 252°
2026-05-04 19:11 34.44901 -114.37151 39851 ft 387 kts 252°
2026-05-04 19:12 34.42880 -114.46599 39867 ft 386 kts 252°
2026-05-04 19:13 34.41528 -114.52894 39872 ft 386 kts 252°
2026-05-04 19:13 34.40173 -114.59185 39875 ft 386 kts 252°
2026-05-04 19:14 34.38815 -114.65475 39878 ft 386 kts 252°
2026-05-04 19:14 34.37454 -114.71762 39875 ft 386 kts 252°
2026-05-04 19:15 34.36091 -114.78043 39890 ft 386 kts 252°
2026-05-04 19:15 34.34733 -114.84282 39892 ft 386 kts 252°
2026-05-04 19:16 34.33363 -114.90564 39892 ft 387 kts 252°
2026-05-04 19:16 34.31985 -114.96857 39886 ft 387 kts 252°
2026-05-04 19:17 34.30602 -115.03158 39902 ft 388 kts 251°
2026-05-04 19:17 34.29214 -115.09466 39893 ft 388 kts 251°
2026-05-04 19:18 34.27825 -115.15771 39899 ft 388 kts 251°
2026-05-04 19:18 34.26433 -115.22069 39901 ft 388 kts 251°
2026-05-04 19:19 34.25080 -115.28374 39899 ft 387 kts 252°
2026-05-04 19:19 34.23745 -115.34672 39919 ft 387 kts 252°
2026-05-04 19:20 34.22404 -115.40969 39911 ft 387 kts 251°
2026-05-04 19:20 34.21057 -115.47257 39910 ft 386 kts 251°
2026-05-04 19:21 34.19709 -115.53530 39924 ft 386 kts 251°
2026-05-04 19:21 34.18357 -115.59808 39914 ft 386 kts 251°
2026-05-04 19:22 34.17001 -115.66090 39941 ft 387 kts 251°
2026-05-04 19:22 34.16032 -115.71378 39918 ft 391 kts 257°
2026-05-04 19:23 34.15445 -115.77916 39951 ft 392 kts 258°
2026-05-04 19:23 34.14880 -115.84451 39956 ft 391 kts 258°
2026-05-04 19:24 34.14260 -115.90969 39975 ft 390 kts 258°
2026-05-04 19:24 34.13629 -115.97439 40006 ft 382 kts 257°
2026-05-04 19:24 34.13322 -116.00586 39640 ft 376 kts 257°
2026-05-04 19:25 34.13017 -116.03702 39122 ft 372 kts 257°
2026-05-04 19:25 34.12713 -116.06795 38429 ft 371 kts 257°
2026-05-04 19:25 34.12409 -116.09881 37627 ft 370 kts 257°
2026-05-04 19:25 34.12105 -116.12960 36843 ft 368 kts 257°
2026-05-04 19:26 34.11802 -116.16023 36110 ft 367 kts 256°
2026-05-04 19:26 34.11500 -116.19077 35281 ft 367 kts 256°
2026-05-04 19:26 34.11196 -116.22137 34431 ft 368 kts 255°
2026-05-04 19:26 34.10888 -116.25220 33409 ft 371 kts 255°
2026-05-04 19:27 34.10577 -116.28322 32409 ft 374 kts 255°
2026-05-04 19:27 34.10263 -116.31437 31753 ft 372 kts 254°
2026-05-04 19:27 34.09925 -116.34592 31235 ft 389 kts 254°
2026-05-04 19:27 34.09566 -116.37869 30768 ft 398 kts 255°
2026-05-04 19:28 34.09210 -116.41182 30260 ft 398 kts 255°
2026-05-04 19:28 34.08863 -116.44445 29721 ft 397 kts 255°
2026-05-04 19:28 34.08507 -116.47784 29182 ft 395 kts 255°
2026-05-04 19:28 34.08157 -116.51054 28698 ft 389 kts 255°
2026-05-04 19:29 34.07818 -116.54242 28187 ft 378 kts 255°
2026-05-04 19:29 34.07485 -116.57341 27728 ft 367 kts 255°
2026-05-04 19:29 34.07167 -116.60360 27353 ft 357 kts 255°
2026-05-04 19:29 34.06896 -116.63260 26902 ft 350 kts 256°
2026-05-04 19:30 34.06633 -116.66152 26463 ft 343 kts 256°
2026-05-04 19:30 34.06373 -116.68987 26033 ft 338 kts 256°
2026-05-04 19:30 34.06119 -116.71778 25609 ft 332 kts 257°
2026-05-04 19:30 34.05863 -116.74527 25200 ft 328 kts 257°
2026-05-04 19:31 34.05608 -116.77244 24836 ft 324 kts 257°
2026-05-04 19:31 34.05353 -116.79941 24415 ft 323 kts 257°
2026-05-04 19:31 34.05102 -116.82627 24016 ft 322 kts 258°
2026-05-04 19:31 34.04848 -116.85310 23614 ft 322 kts 258°
2026-05-04 19:32 34.04593 -116.87994 23171 ft 322 kts 258°
2026-05-04 19:32 34.04310 -116.90678 22738 ft 323 kts 257°
2026-05-04 19:32 34.03957 -116.93354 22328 ft 324 kts 256°
2026-05-04 19:32 34.03595 -116.96028 21908 ft 323 kts 256°
2026-05-04 19:33 34.03240 -116.98702 21517 ft 323 kts 257°
2026-05-04 19:33 34.02891 -117.01376 21120 ft 323 kts 257°
2026-05-04 19:33 34.02546 -117.04049 20717 ft 323 kts 257°
2026-05-04 19:33 34.02226 -117.06723 20318 ft 322 kts 258°
2026-05-04 19:34 34.01914 -117.09395 19919 ft 322 kts 258°
2026-05-04 19:34 34.01602 -117.12063 19529 ft 321 kts 258°
2026-05-04 19:34 34.01288 -117.14728 19141 ft 321 kts 258°
2026-05-04 19:34 34.00971 -117.17394 18756 ft 322 kts 258°
2026-05-04 19:35 34.00652 -117.20065 18390 ft 322 kts 258°
2026-05-04 19:35 34.00333 -117.22742 17894 ft 322 kts 259°
2026-05-04 19:35 34.00015 -117.25401 17461 ft 319 kts 259°
2026-05-04 19:35 33.99701 -117.28029 17037 ft 315 kts 259°
2026-05-04 19:36 33.99391 -117.30622 16639 ft 312 kts 259°
2026-05-04 19:36 33.99083 -117.33207 16255 ft 312 kts 259°
2026-05-04 19:36 33.98780 -117.35789 15854 ft 311 kts 259°
2026-05-04 19:36 33.98479 -117.38357 15481 ft 309 kts 259°
2026-05-04 19:37 33.98178 -117.40914 15109 ft 308 kts 259°
2026-05-04 19:37 33.97877 -117.43467 14726 ft 308 kts 259°
2026-05-04 19:37 33.97582 -117.45976 14339 ft 295 kts 259°
2026-05-04 19:37 33.97323 -117.48351 13976 ft 280 kts 263°
2026-05-04 19:38 33.97490 -117.50689 13658 ft 282 kts 278°
2026-05-04 19:38 33.97930 -117.52996 13304 ft 283 kts 279°
2026-05-04 19:38 33.98358 -117.55283 12966 ft 285 kts 279°
2026-05-04 19:38 33.98788 -117.57622 12595 ft 287 kts 279°
2026-05-04 19:39 33.99213 -117.59973 12238 ft 288 kts 279°
2026-05-04 19:39 33.99633 -117.62329 11890 ft 288 kts 279°
2026-05-04 19:39 34.00050 -117.64689 11512 ft 288 kts 279°
2026-05-04 19:39 34.00465 -117.67033 11131 ft 280 kts 279°
2026-05-04 19:40 34.00668 -117.69318 10779 ft 272 kts 266°
2026-05-04 19:40 34.00475 -117.71567 10455 ft 265 kts 262°
2026-05-04 19:40 34.00232 -117.73698 10133 ft 247 kts 262°
2026-05-04 19:40 34.00012 -117.75676 9784 ft 230 kts 262°
2026-05-04 19:41 33.99810 -117.77540 9495 ft 221 kts 262°
2026-05-04 19:41 33.99620 -117.79384 9251 ft 225 kts 263°
2026-05-04 19:41 33.99427 -117.81283 8956 ft 230 kts 263°
2026-05-04 19:41 33.99236 -117.83194 8649 ft 228 kts 263°
2026-05-04 19:42 33.99053 -117.85066 8375 ft 222 kts 263°
2026-05-04 19:42 33.98874 -117.86895 8082 ft 217 kts 263°
2026-05-04 19:42 33.98699 -117.88687 7812 ft 215 kts 263°
2026-05-04 19:42 33.98524 -117.90480 7559 ft 215 kts 263°
2026-05-04 19:43 33.98347 -117.92273 7288 ft 216 kts 263°
2026-05-04 19:43 33.98169 -117.94077 7019 ft 218 kts 263°
2026-05-04 19:43 33.97990 -117.95896 6740 ft 219 kts 264°
2026-05-04 19:43 33.97811 -117.97711 6477 ft 218 kts 264°
2026-05-04 19:44 33.97634 -117.99518 6182 ft 215 kts 263°
2026-05-04 19:44 33.97458 -118.01290 5919 ft 211 kts 263°
2026-05-04 19:44 33.97285 -118.03033 5635 ft 208 kts 263°
2026-05-04 19:44 33.97115 -118.04747 5363 ft 206 kts 263°
2026-05-04 19:45 33.96945 -118.06448 5086 ft 209 kts 263°
2026-05-04 19:45 33.96768 -118.08226 4815 ft 212 kts 264°
2026-05-04 19:45 33.96595 -118.09969 4519 ft 213 kts 263°
2026-05-04 19:45 33.96425 -118.11760 4252 ft 211 kts 264°
2026-05-04 19:46 33.96255 -118.13507 3983 ft 209 kts 263°
2026-05-04 19:46 33.96086 -118.15193 3893 ft 201 kts 263°
2026-05-04 19:46 33.95915 -118.16874 3615 ft 207 kts 263°
2026-05-04 19:46 33.95742 -118.18575 3356 ft 202 kts 262°
2026-05-04 19:47 33.95575 -118.20221 3115 ft 188 kts 262°
2026-05-04 19:47 33.95423 -118.21715 2881 ft 173 kts 262°
2026-05-04 19:47 33.95283 -118.23089 2654 ft 162 kts 261°
2026-05-04 19:47 33.95147 -118.24422 2425 ft 154 kts 262°
2026-05-04 19:48 33.95023 -118.25645 2214 ft 143 kts 261°
2026-05-04 19:48 33.94908 -118.26778 2030 ft 131 kts 261°
2026-05-04 19:48 33.94792 -118.27894 1866 ft 136 kts 261°
2026-05-04 19:48 33.94681 -118.28999 1656 ft 133 kts 261°
2026-05-04 19:49 33.94565 -118.30127 1485 ft 134 kts 262°
2026-05-04 19:49 33.94448 -118.31222 1324 ft 135 kts 262°
2026-05-04 19:49 33.94331 -118.32406 1126 ft 142 kts 262°
2026-05-04 19:49 33.94220 -118.33565 928 ft 134 kts 262°
2026-05-04 19:50 33.94104 -118.34666 760 ft 133 kts 262°
2026-05-04 19:50 33.93995 -118.35766 567 ft 128 kts 263°
2026-05-04 19:50 33.93891 -118.36770 408 ft 115 kts 263°
2026-05-04 19:50 33.93790 -118.37749 253 ft 127 kts 262°
2026-05-04 19:51 33.93685 -118.38811 146 ft 122 kts 261°
2026-05-04 19:51 33.93590 -118.39704 130 ft 90 kts 263°
2026-05-04 19:51 33.93531 -118.40280 127 ft 59 kts 263°
2026-05-04 19:51 33.93488 -118.40651 130 ft 26 kts 252°
2026-05-04 19:52 33.93384 -118.40683 128 ft 15 kts 119°
2026-05-04 19:52 33.93377 -118.40633 126 ft 1 kts 92°
2026-05-04 19:52 33.93377 -118.40610 126 ft 9 kts 89°
2026-05-04 19:52 33.93386 -118.40490 127 ft 16 kts 83°
2026-05-04 19:53 33.93403 -118.40324 130 ft 28 kts 83°
2026-05-04 19:53 33.93428 -118.40087 129 ft 29 kts 84°
2026-05-04 19:53 33.93452 -118.39853 128 ft 26 kts 82°
2026-05-04 19:53 33.93474 -118.39640 127 ft 26 kts 83°
2026-05-04 19:54 33.93495 -118.39426 128 ft 26 kts 82°
2026-05-04 19:54 33.93517 -118.39213 128 ft 26 kts 83°
2026-05-04 19:54 33.93540 -118.39000 127 ft 26 kts 83°
2026-05-04 19:54 33.93525 -118.38871 125 ft 15 kts 134°
2026-05-04 19:55 33.93424 -118.38842 125 ft 15 kts 172°
2026-05-04 19:55 33.93406 -118.38839 128 ft 0 kts 173°